Location: Newark
(33.9035°S, 18.4112°E)
Time: 09:52:51
(UTC+00:00)

STARLINK-1075 - Pass Details

Date: 25 January 2020
Orbit: 349 x 351 km, 53.0° (Epoch: 22 February)

Event Time Altitude Azimuth Distance (km) Brightness Sun altitude
Exits shadow 01:18:04 15° 146° (SE) 1,079 6.0 -27.4°
Drops below altitude 10° 01:18:43 10° 143° (SE) 1,338 6.6 -27.3°
Sets 01:20:46 0° 139° (SE) 2,188 8.0 -27.1°
